| time (UTC) | temp C | wind direction | speed KPH | gust KPH | rain 1hr cm | rain 24hr cm | rain mn cm | humidity % | barometer mb |
| 20260507002505 | 9 | 0.0 | 0.0 | 0.00 | 0.00 | 0.00 | 84 | 1008.8 | |
| 20260507001503 | 9 | 0.0 | 0.0 | 0.00 | 0.00 | 0.00 | 82 | 1008.7 | |
| 20260507000503 | 10 | 0.0 | 0.0 | 0.00 | 0.00 | 0.00 | 82 | 1008.6 | |
| 20260506235504 | 9 | 0.0 | 0.0 | 0.00 | 0.00 | 0.00 | 82 | 1008.7 | |
| 20260506234504 | 9 | 0.0 | 0.0 | 0.00 | 0.00 | 0.00 | 82 | 1008.7 | |
| 20260506232503 | 9 | 0.0 | 0.0 | 0.00 | 0.00 | 0.00 | 82 | 1008.7 | |
| 20260506231504 | 10 | 0.0 | 0.0 | 0.00 | 0.00 | 0.00 | 81 | 1008.7 | |
| 20260506230503 | 10 | 0.0 | 0.0 | 0.00 | 0.00 | 0.00 | 81 | 1008.7 | |
| 20260506225503 | 10 | 0.0 | 0.0 | 0.00 | 0.00 | 0.00 | 80 | 1008.7 | |
| 20260506224503 | 10 | 0.0 | 0.0 | 0.00 | 0.00 | 0.00 | 81 | 1008.9 | |
| 20260506221504 | 10 | 0.0 | 0.0 | 0.00 | 0.00 | 0.00 | 81 | 1008.4 | |
| 20260506220503 | 10 | 0.0 | 0.0 | 0.00 | 0.00 | 0.00 | 82 | 1008.1 | |
| 20260506215503 | 10 | 0.0 | 0.0 | 0.00 | 0.00 | 0.00 | 83 | 1008.2 | |
| 20260506214503 | 10 | 0.0 | 0.0 | 0.00 | 0.00 | 0.00 | 84 | 1007.9 | |
| 20260506212503 | 11 | 0.0 | 0.0 | 0.00 | 0.00 | 0.00 | 84 | 1007.8 | |
| 20260506204503 | 11 | 0.0 | 0.0 | 0.00 | 0.00 | 0.00 | 83 | 1007.8 | |
| 20260506203503 | 12 | 0.0 | 0.0 | 0.00 | 0.00 | 0.00 | 83 | 1007.7 | |
| 20260506201503 | 12 | 0.0 | 0.0 | 0.00 | 0.00 | 0.00 | 81 | 1007.8 | |
| 20260506200503 | 12 | 0.0 | 0.0 | 0.00 | 0.00 | 0.00 | 80 | 1007.7 | |
| 20260506195503 | 12 | 0.0 | 0.0 | 0.00 | 0.00 | 0.00 | 80 | 1007.6 | |
| 20260506194503 | 12 | 0.0 | 0.0 | 0.00 | 0.00 | 0.00 | 79 | 1007.5 | |
| 20260506193504 | 12 | 0.0 | 0.0 | 0.00 | 0.00 | 0.00 | 78 | 1007.4 | |
| 20260506192504 | 12 | 0.0 | 0.0 | 0.00 | 0.00 | 0.00 | 78 | 1007.2 | |
| 20260506191503 | 12 | 0.0 | 0.0 | 0.00 | 0.00 | 0.00 | 76 | 1007.2 | |
| 20260506184503 | 13 | 0.0 | 0.0 | 0.00 | 0.00 | 0.00 | 74 | 1007.1 | |
| 20260506183503 | 13 | 0.0 | 0.0 | 0.00 | 0.00 | 0.00 | 73 | 1006.9 | |
| 20260506182503 | 13 | 0.0 | 0.0 | 0.00 | 0.00 | 0.00 | 72 | 1006.7 | |
| 20260506180503 | 15 | 0.0 | 0.0 | 0.00 | 0.00 | 0.00 | 70 | 1006.4 | |
| 20260506175503 | 15 | 0.0 | 0.0 | 0.00 | 0.00 | 0.00 | 69 | 1006.3 | |
| 20260506173502 | 16 | 0.0 | 0.0 | 0.00 | 0.00 | 0.00 | 67 | 1006.1 | |
| 20260506172503 | 17 | 0.0 | 0.0 | 0.00 | 0.00 | 0.00 | 65 | 1006.1 | |
| 20260506171502 | 17 | 0.0 | 0.0 | 0.00 | 0.00 | 0.00 | 64 | 1006.0 | |
| 20260506170508 | 18 | 0.0 | 0.0 | 0.00 | 0.00 | 0.00 | 63 | 1005.8 | |
| 20260506165505 | 18 | 0.0 | 0.0 | 0.00 | 0.00 | 0.00 | 62 | 1005.8 | |
| 20260506160502 | 19 | 0.0 | 0.0 | 0.00 | 0.00 | 0.00 | 58 | 1005.5 | |
| 20260506155503 | 20 | 0.0 | 0.0 | 0.00 | 0.00 | 0.00 | 57 | 1005.4 | |
| 20260506154504 | 20 | 0.0 | 0.0 | 0.00 | 0.00 | 0.00 | 57 | 1005.4 | |
| 20260506153502 | 20 | 0.0 | 0.0 | 0.00 | 0.00 | 0.00 | 58 | 1005.5 | |
| 20260506152504 | 19 | 0.0 | 0.0 | 0.00 | 0.00 | 0.00 | 57 | 1005.4 | |
| 20260506151502 | 20 | 0.0 | 0.0 | 0.00 | 0.00 | 0.00 | 57 | 1005.4 | |
| 20260506150503 | 20 | 0.0 | 0.0 | 0.00 | 0.00 | 0.00 | 56 | 1005.5 | |
| 20260506145502 | 20 | 0.0 | 0.0 | 0.00 | 0.00 | 0.00 | 56 | 1005.4 | |
| 20260506144502 | 20 | 0.0 | 0.0 | 0.00 | 0.00 | 0.00 | 56 | 1005.5 | |
| 20260506143502 | 19 | 0.0 | 0.0 | 0.00 | 0.00 | 0.00 | 57 | 1005.6 | |
| 20260506142502 | 18 | 0.0 | 0.0 | 0.00 | 0.00 | 0.00 | 58 | 1005.4 | |
| 20260506141502 | 19 | 0.0 | 0.0 | 0.00 | 0.00 | 0.00 | 57 | 1005.4 | |
| 20260506140502 | 19 | 0.0 | 0.0 | 0.00 | 0.00 | 0.00 | 57 | 1005.4 | |
| 20260506130504 | 19 | 0.0 | 0.0 | 0.00 | 0.00 | 0.00 | 55 | 1005.5 | |
| 20260506125505 | 20 | 0.0 | 0.0 | 0.00 | 0.00 | 0.00 | 54 | 1005.3 | |
| 20260506124504 | 20 | 0.0 | 0.0 | 0.00 | 0.00 | 0.00 | 53 | 1005.3 | |
| 20260506123503 | 21 | 0.0 | 0.0 | 0.00 | 0.00 | 0.00 | 52 | 1005.3 | |
| 20260506121504 | 19 | 0.0 | 0.0 | 0.00 | 0.00 | 0.00 | 54 | 1005.4 | |
| 20260506120504 | 20 | 0.0 | 0.0 | 0.00 | 0.00 | 0.00 | 52 | 1005.2 | |
| 20260506115503 | 20 | 0.0 | 0.0 | 0.00 | 0.00 | 0.00 | 53 | 1005.2 | |
| 20260506114503 | 20 | 0.0 | 0.0 | 0.00 | 0.00 | 0.00 | 52 | 1005.2 | |
| 20260506113504 | 20 | 0.0 | 0.0 | 0.00 | 0.00 | 0.00 | 53 | 1005.4 | |
| 20260506112504 | 20 | 0.0 | 0.0 | 0.00 | 0.00 | 0.00 | 53 | 1005.4 | |
| 20260506111503 | 19 | 0.0 | 0.0 | 0.00 | 0.00 | 0.00 | 57 | 1005.4 | |
| 20260506110503 | 19 | 0.0 | 0.0 | 0.00 | 0.00 | 0.00 | 56 | 1005.3 | |
| 20260506105503 | 19 | 0.0 | 0.0 | 0.00 | 0.00 | 0.00 | 57 | 1005.2 | |
| 20260506104503 | 19 | 0.0 | 0.0 | 0.00 | 0.00 | 0.00 | 56 | 1005.1 | |
| 20260506103503 | 18 | 0.0 | 0.0 | 0.00 | 0.00 | 0.00 | 55 | 1005.0 | |
| 20260506095504 | 18 | 0.0 | 0.0 | 0.00 | 0.00 | 0.00 | 57 | 1004.8 | |
| 20260506093503 | 18 | 0.0 | 0.0 | 0.00 | 0.00 | 0.00 | 54 | 1004.7 | |
| 20260506090503 | 18 | 0.0 | 0.0 | 0.00 | 0.00 | 0.00 | 58 | 1004.6 | |
| 20260506084505 | 16 | 0.0 | 0.0 | 0.00 | 0.00 | 0.00 | 65 | 1004.8 | |
| 20260506083503 | 16 | 0.0 | 0.0 | 0.00 | 0.00 | 0.00 | 63 | 1004.4 | |
| 20260506082503 | 16 | 0.0 | 0.0 | 0.00 | 0.00 | 0.00 | 62 | 1004.2 | |
| 20260506081503 | 16 | 0.0 | 0.0 | 0.00 | 0.00 | 0.00 | 62 | 1004.6 | |
| 20260506080503 | 16 | 0.0 | 0.0 | 0.00 | 0.00 | 0.00 | 63 | 1004.7 | |
| 20260506073503 | 16 | 0.0 | 0.0 | 0.00 | 0.00 | 0.00 | 63 | 1004.4 | |
| 20260506071504 | 16 | 0.0 | 0.0 | 0.00 | 0.00 | 0.00 | 64 | 1004.4 | |
| 20260506070503 | 16 | 0.0 | 0.0 | 0.00 | 0.00 | 0.00 | 65 | 1004.4 | |
| 20260506062505 | 13 | 0.0 | 0.0 | 0.00 | 0.00 | 0.00 | 75 | 1004.3 | |
| 20260506060506 | 12 | 0.0 | 0.0 | 0.00 | 0.00 | 0.00 | 75 | 1004.6 | |
| 20260506042504 | 10 | 0.0 | 0.0 | 0.00 | 0.00 | 0.00 | 96 | 1005.4 | |
| 20260506040504 | 10 | 0.0 | 0.0 | 0.00 | 0.00 | 0.00 | 10 | 1005.8 | |
| 20260506035506 | 9 | 0.0 | 0.0 | 0.00 | 0.00 | 0.00 | 10 | 1006.0 | |
| 20260506033504 | 9 | 0.0 | 0.0 | 0.00 | 0.00 | 0.00 | 10 | 1006.2 | |
| 20260506030504 | 9 | 0.0 | 0.0 | 0.00 | 0.00 | 0.00 | 10 | 1006.3 | |
| 20260506025504 | 9 | 0.0 | 0.0 | 0.00 | 0.00 | 0.00 | 10 | 1006.5 | |
| 20260506020505 | 10 | 0.0 | 0.0 | 0.00 | 0.00 | 0.00 | 98 | 1006.9 | |
| 20260506015504 | 10 | 0.0 | 0.0 | 0.00 | 0.00 | 0.00 | 98 | 1007.0 | |
| 20260506013504 | 10 | 0.0 | 0.0 | 0.00 | 0.00 | 0.00 | 97 | 1007.0 | |
| 20260506012504 | 10 | 0.0 | 0.0 | 0.00 | 0.00 | 0.00 | 97 | 1007.1 | |
| 20260506010505 | 10 | 0.0 | 0.0 | 0.00 | 0.00 | 0.00 | 97 | 1007.4 | |
| 20260506005503 | 10 | 0.0 | 0.0 | 0.00 | 0.00 | 0.00 | 97 | 1007.6 | |
| 20260506004503 | 10 | 0.0 | 0.0 | 0.00 | 0.00 | 0.00 | 97 | 1007.4 | |
| 20260506003502 | 10 | 0.0 | 0.0 | 0.00 | 0.00 | 0.00 | 97 | 1007.2 |